Location: Newark
(40.7360°N, 74.1730°W)
Time: 01:05:04
(UTC-04:00)

Amateur Radio Satellites - All Passes

Search period start: 31 July 2015 00:35
Search period end: 01 August 2015 00:35
Location: Newark, 40.7360°N, 74.1730°W

Satellite Date Start Highest point End Downlink Frequencies (MHz)
Time Altitude Azimuth
CUBEBUG 1 31 Jul 00:36:08 00:39:27 20° 267° (W) 00:42:40 437.445
BEESAT 3 31 Jul 00:38:10 00:42:11 58° 305° (NW) 00:46:14 437.485
UNISAT 6 31 Jul 00:39:53 00:43:34 23° 292° (WNW) 00:47:10 437.425
POLYITAN 1 31 Jul 00:52:39 00:56:33 34° 289° (WNW) 01:00:25 437.675
AIST 1 31 Jul 01:01:50 01:04:00 13° 274° (W) 01:05:59
POPSAT HIP 1 31 Jul 01:10:45 01:14:11 23° 291° (WNW) 01:17:30 437.405
SPROUT 31 Jul 01:17:43 01:21:11 23° 266° (W) 01:24:35 437.525
QB50P2 31 Jul 01:18:19 01:21:24 19° 293° (WNW) 01:24:22 145.880/145.840
AIST 2 31 Jul 01:18:32 01:22:43 64° 120° (ESE) 01:26:58 435.215
BUGSAT 1 31 Jul 01:22:49 01:26:12 25° 290° (WNW) 01:29:34 437.445
Oscar 19 31 Jul 01:24:05 01:27:37 19° 91° (E) 01:31:18 437.125/150
BEESAT 31 Jul 01:29:04 01:33:38 46° 72° (ENE) 01:38:15 436.000
BEESAT 2 31 Jul 01:34:55 01:38:15 23° 314° (NW) 01:41:31 435.950
PHONESAT 2.4 31 Jul 01:35:15 01:38:32 39° 201° (SSW) 01:41:49 2401.200-2431.200
ISS 31 Jul 01:35:23 01:36:52 12° 4° (N) 01:38:22 145.825
TISAT 1 31 Jul 01:35:29 01:38:52 23° 266° (W) 01:42:11 437.305
Cosmos 2504 31 Jul 01:41:56 01:45:27 15° 79° (ENE) 01:49:31 435.465 / 435.565
DUCHIFAT 1 31 Jul 01:46:15 01:47:30 11° 296° (WNW) 01:48:31 145.980
SWISSCUBE 31 Jul 01:49:08 01:53:57 82° 75° (ENE) 01:58:46 437.505
O/OREOS (USA 219) 31 Jul 01:57:58 02:02:21 60° 109° (ESE) 02:06:48 437.305
Cosmos 2491 31 Jul 02:02:48 02:08:38 19° 280° (W) 02:14:00 435.465 / 435.565
ITUPSAT 1 31 Jul 02:09:26 02:14:13 70° 258° (WSW) 02:19:03 437.325
Gurwin Techsat 1B 31 Jul 02:11:48 02:14:53 16° 89° (E) 02:18:13 435.225
STARS 31 Jul 02:22:53 02:25:34 17° 66° (ENE) 02:28:25 437.465
YUBILEINY 31 Jul 02:23:00 02:30:48 34° 291° (WNW) 02:38:30 435.215
ITAMSAT 1 31 Jul 02:41:23 02:45:40 26° 94° (E) 02:50:02 435.822/435.867
RS-15 31 Jul 02:43:54 02:51:48 20° 358° (N) 02:59:56 29.354- 29.394
KKS-1 31 Jul 02:44:27 02:48:39 46° 72° (ENE) 02:52:54 437.445
AIST 2 31 Jul 02:58:57 03:01:44 16° 318° (NW) 03:04:25 435.215
Oscar 19 31 Jul 03:02:17 03:07:19 51° 288° (WNW) 03:12:19 437.125/150
BEESAT 31 Jul 03:08:23 03:11:46 18° 269° (W) 03:14:59 436.000
ISS 31 Jul 03:11:24 03:14:10 25° 23° (NNE) 03:16:56 145.825
AO-7 31 Jul 03:20:21 03:24:17 15° 86° (E) 03:28:49 29.400- 29.500
JAS-2 31 Jul 03:24:40 03:31:46 38° 94° (E) 03:38:54 435.910
MOZHAYETS 4 31 Jul 03:26:34 03:29:21 16° 65° (ENE) 03:32:20
Cosmos 2504 31 Jul 03:29:29 03:36:34 87° 277° (W) 03:44:12 435.465 / 435.565
O/OREOS (USA 219) 31 Jul 03:39:37 03:42:17 15° 308° (NW) 03:44:47 437.305
HORYU 2 31 Jul 03:43:29 03:45:31 13° 89° (E) 03:47:46 437.375
Gurwin Techsat 1B 31 Jul 03:50:08 03:55:23 62° 287° (WNW) 04:00:37 435.225
CUSAT 1 31 Jul 03:54:23 03:55:19 11° 95° (E) 03:56:20 437.405
STARS 31 Jul 03:57:30 04:01:41 46° 261° (W) 04:05:55 437.465
ITAMSAT 1 31 Jul 04:20:32 04:25:17 37° 291° (WNW) 04:29:58 435.822/435.867
KKS-1 31 Jul 04:22:47 04:25:34 16° 269° (W) 04:28:12 437.445
ISS 31 Jul 04:47:35 04:50:45 49° 221° (SW) 04:53:54 145.825
RS-15 31 Jul 04:59:14 05:09:15 33° 32° (NNE) 05:19:51 29.354- 29.394
MOZHAYETS 4 31 Jul 05:01:40 05:06:11 53° 261° (W) 05:10:45
DANDE 31 Jul 05:04:52 05:08:22 84° 100° (E) 05:11:12 436.750
GONETS M04 31 Jul 05:09:18 05:15:12 22° 81° (E) 05:21:31
JAS-2 31 Jul 05:09:28 05:16:55 49° 291° (WNW) 05:24:16 435.910
AO-7 31 Jul 05:10:10 05:18:34 80° 107° (ESE) 05:26:53 29.400- 29.500
CUBESAT XI-V 31 Jul 05:16:23 05:19:40 20° 67° (ENE) 05:23:05 437.345
HORYU 2 31 Jul 05:18:09 05:22:36 58° 287° (WNW) 05:27:01 437.375
Cosmos 2504 31 Jul 05:26:04 05:30:16 15° 301° (WNW) 05:34:10 435.465 / 435.565
CUSAT 1 31 Jul 05:35:49 05:37:45 16° 285° (WNW) 05:39:30 437.405
Cubesat XI-IV 31 Jul 06:22:07 06:26:10 22° 92° (E) 06:30:21 437.490
STRAND 1 31 Jul 06:51:33 06:56:36 59° 72° (ENE) 07:01:40 437.568
CUBESAT XI-V 31 Jul 06:52:21 06:56:50 43° 262° (W) 07:01:17 437.345
PRISM 31 Jul 06:53:43 06:57:44 48° 73° (ENE) 07:01:48 437.425
JAS-2 31 Jul 06:59:38 07:00:23 10° 309° (NW) 07:00:34 435.910
GONETS M04 31 Jul 07:02:30 07:11:14 76° 280° (W) 07:19:57
AO-7 31 Jul 07:04:10 07:10:36 25° 305° (NW) 07:16:45 29.400- 29.500
RS-15 31 Jul 07:11:42 07:23:34 89° 60° (ENE) 07:35:51 29.354- 29.394
CUTE-I 31 Jul 07:17:34 07:22:54 73° 102° (ESE) 07:28:12 437.470
BEESAT 3 31 Jul 07:21:41 07:22:09 10° 37° (NE) 07:22:47 437.485
Cosmos 2499 31 Jul 07:38:44 07:45:33 45° 89° (E) 07:52:58 435.465 / 435.565
BRITE-PL 31 Jul 07:45:31 07:48:25 18° 92° (E) 07:51:36 437.365/2234.400
Cubesat XI-IV 31 Jul 08:01:28 08:06:32 45° 290° (WNW) 08:11:33 437.490
GOMX 1 31 Jul 08:02:36 08:05:23 16° 92° (E) 08:08:29 467.674
HO-68 31 Jul 08:08:14 08:12:04 16° 87° (E) 08:16:21 435.675
BEESAT 2 31 Jul 08:15:42 08:19:00 23° 46° (NE) 08:22:17 435.950
AUBIESAT-1 31 Jul 08:23:48 08:26:22 17° 59° (ENE) 08:29:09 437.475
PRISM 31 Jul 08:31:13 08:33:29 14° 269° (W) 08:35:35 437.425
STRAND 1 31 Jul 08:32:59 08:36:16 16° 270° (W) 08:39:20 437.568
SO-50 31 Jul 08:37:59 08:39:59 13° 108° (ESE) 08:42:15 436.795
COMPASS 1 31 Jul 08:43:48 08:45:21 12° 88° (E) 08:47:08 437.405
SEEDS 31 Jul 08:55:33 08:58:48 22° 93° (E) 09:02:08 437.485
CUTE 1.7 + AOD 2 31 Jul 08:56:14 08:59:55 27° 95° (E) 09:03:37 437.475
BEESAT 3 31 Jul 08:56:49 09:00:53 74° 57° (ENE) 09:04:51 437.485
CUTE-I 31 Jul 08:59:19 09:02:25 15° 298° (WNW) 09:05:18 437.470
CANX-2 31 Jul 09:04:12 09:08:13 37° 97° (E) 09:12:13 2200.000
GONETS M04 31 Jul 09:05:02 09:09:56 15° 303° (WNW) 09:14:18
BRITE-PL 31 Jul 09:23:03 09:27:09 41° 287° (WNW) 09:31:29 437.365/2234.400
PCSat 31 Jul 09:24:07 09:29:21 54° 114° (ESE) 09:34:39 145.827
AAUSAT CUBESAT 2 31 Jul 09:24:31 09:28:13 30° 95° (E) 09:31:56 437.432
RS-15 31 Jul 09:25:51 09:34:54 25° 257° (WSW) 09:43:29 29.354- 29.394
M-CUBED/EXP-1 PRIME 31 Jul 09:26:07 09:30:06 88° 74° (ENE) 09:34:28 437.505
Cosmos 2499 31 Jul 09:32:15 09:38:56 34° 290° (WNW) 09:45:59 435.465 / 435.565
DOVE 4 31 Jul 09:33:10 09:37:46 90° 291° (WNW) 09:42:39 437.250
GOMX 1 31 Jul 09:39:28 09:43:47 48° 286° (WNW) 09:48:21 467.674
AIST 2 31 Jul 09:40:38 09:44:34 38° 51° (NE) 09:48:27 435.215
CINEMA 3 31 Jul 09:50:43 09:55:21 63° 101° (E) 10:00:11 145.822/145.860
BEESAT 2 31 Jul 09:53:25 09:57:08 34° 244° (WSW) 10:00:45 435.950
HO-68 31 Jul 09:53:37 10:00:51 89° 287° (WNW) 10:08:04 435.675
ZACube-1 31 Jul 09:55:16 09:58:31 20° 92° (E) 10:01:55 437.345
AUBIESAT-1 31 Jul 09:56:47 10:00:39 48° 257° (WSW) 10:04:51 437.475
UNISAT 6 31 Jul 10:01:40 10:05:28 31° 70° (ENE) 10:09:24 437.425
POLYITAN 1 31 Jul 10:11:05 10:13:27 15° 66° (ENE) 10:15:59 437.675
SO-50 31 Jul 10:15:11 10:19:57 75° 305° (NW) 10:24:51 436.795
UWE-3 31 Jul 10:15:52 10:20:14 42° 98° (E) 10:24:40 435.000/436.395/437.385
FUNcube-1 31 Jul 10:16:53 10:20:56 32° 96° (E) 10:25:03 145.935
COMPASS 1 31 Jul 10:17:17 10:21:27 55° 286° (WNW) 10:25:33 437.405
POPSAT HIP 1 31 Jul 10:27:39 10:30:52 22° 68° (ENE) 10:34:10 437.405
CUBEBUG 2 31 Jul 10:28:56 10:33:35 75° 103° (ESE) 10:38:18 437.445
O/OREOS (USA 219) 31 Jul 10:30:34 10:32:38 13° 51° (NE) 10:34:53 437.305
SEEDS 31 Jul 10:30:51 10:34:39 31° 289° (WNW) 10:38:23 437.485
Oscar 11 31 Jul 10:31:29 10:35:52 77° 102° (ESE) 10:40:12 145.826/435.025
CUTE 1.7 + AOD 2 31 Jul 10:32:10 10:35:45 25° 291° (WNW) 10:39:14 437.475
QB50P2 31 Jul 10:34:40 10:38:12 27° 70° (ENE) 10:41:49 145.880/145.840
UKube-1 31 Jul 10:34:56 10:36:21 12° 89° (E) 10:38:01 .
YUBILEINY 31 Jul 10:36:10 10:43:00 25° 65° (ENE) 10:50:09 435.215
BUGSAT 1 31 Jul 10:38:01 10:40:39 17° 67° (ENE) 10:43:24 437.445
CANX-2 31 Jul 10:40:46 10:43:54 19° 293° (WNW) 10:46:53 2200.000
TIGRISAT 31 Jul 10:44:50 10:49:09 89° 78° (ENE) 10:53:37 435.000
ANTELSAT 31 Jul 10:46:09 10:50:29 86° 257° (WSW) 10:54:57 437.575/2403.000
HUMSAT D 31 Jul 10:50:25 10:54:14 30° 96° (E) 10:58:05 437.325/437.525
DELFI C3 31 Jul 10:53:04 10:57:09 87° 284° (WNW) 11:01:12 145.870
50 SAT 31 Jul 10:54:51 10:57:01 14° 91° (E) 10:59:18 437.505
DX 1 31 Jul 10:59:38 11:03:12 25° 95° (E) 11:06:49 434.975-435.025
DUCHIFAT 1 31 Jul 10:59:54 11:03:54 48° 73° (ENE) 11:07:58 145.980
AAUSAT CUBESAT 2 31 Jul 11:00:22 11:03:42 22° 291° (WNW) 11:06:55 437.432
QB50P1 31 Jul 11:02:17 11:06:22 54° 74° (ENE) 11:10:30 145.935-145.965
NANOSAT C BR1 31 Jul 11:03:56 11:08:01 55° 74° (ENE) 11:12:08 145.865
PCSat 31 Jul 11:08:42 11:13:08 24° 313° (NW) 11:17:29 145.827
VELOX 1 31 Jul 11:10:23 11:13:30 19° 93° (E) 11:16:45 145.980
Cosmos 2491 31 Jul 11:11:41 11:17:04 19° 80° (E) 11:22:54 435.465 / 435.565
ESTCUBE 1 31 Jul 11:18:10 11:21:00 17° 91° (E) 11:23:59 437.505/2401.250
AIST 2 31 Jul 11:19:46 11:22:54 20° 248° (WSW) 11:25:53 435.215
CINEMA 3 31 Jul 11:29:30 11:32:08 15° 295° (WNW) 11:34:38 145.822/145.860
ZACube-1 31 Jul 11:30:47 11:35:03 40° 288° (WNW) 11:39:18 437.345
UNISAT 6 31 Jul 11:38:47 11:42:18 23° 267° (W) 11:45:47 437.425
HO-68 31 Jul 11:43:04 11:47:45 18° 304° (NW) 11:52:07 435.675
POLYITAN 1 31 Jul 11:44:58 11:49:01 46° 261° (W) 11:53:05 437.675
AIST 1 31 Jul 11:51:59 11:55:41 28° 91° (E) 11:59:26
UWE-3 31 Jul 11:53:07 11:56:29 20° 293° (WNW) 11:59:46 435.000/436.395/437.385
FUNcube-1 31 Jul 11:53:24 11:57:07 25° 291° (WNW) 12:00:47 145.935
SO-50 31 Jul 11:58:52 12:01:25 14° 325° (NW) 12:03:50 436.795
POPSAT HIP 1 31 Jul 12:02:53 12:06:36 30° 264° (W) 12:10:18 437.405
AISAT 31 Jul 12:06:29 12:10:55 84° 103° (ESE) 12:15:20 437.250
CUBEBUG 2 31 Jul 12:07:49 12:09:45 12° 296° (WNW) 12:11:28 437.445
O/OREOS (USA 219) 31 Jul 12:08:06 12:12:41 74° 250° (WSW) 12:17:15 437.305
UKube-1 31 Jul 12:08:41 12:12:56 60° 287° (WNW) 12:17:11 .
Oscar 11 31 Jul 12:10:28 12:11:29 11° 297° (WNW) 12:12:15 145.826/435.025
QB50P2 31 Jul 12:10:37 12:14:05 24° 266° (W) 12:17:30 145.880/145.840
BUGSAT 1 31 Jul 12:12:07 12:15:53 36° 262° (W) 12:19:38 437.445
CUBEBUG 1 31 Jul 12:23:47 12:28:06 74° 101° (E) 12:32:26 437.445
HUMSAT D 31 Jul 12:26:21 12:29:50 24° 291° (WNW) 12:33:14 437.325/437.525
50 SAT 31 Jul 12:28:03 12:31:49 41° 287° (WNW) 12:35:33 437.505
YUBILEINY 31 Jul 12:32:00 12:40:47 71° 266° (W) 12:49:31 435.215
DX 1 31 Jul 12:35:41 12:39:26 28° 291° (WNW) 12:43:07 434.975-435.025
DUCHIFAT 1 31 Jul 12:37:52 12:40:03 13° 270° (W) 12:42:03 145.980
Oscar 19 31 Jul 12:40:35 12:44:47 27° 67° (ENE) 12:49:06 437.125/150
QB50P1 31 Jul 12:40:50 12:42:38 12° 271° (W) 12:44:13 145.935-145.965
NANOSAT C BR1 31 Jul 12:42:37 12:44:16 12° 271° (W) 12:45:42 145.865
VELOX 1 31 Jul 12:46:08 12:50:13 37° 289° (WNW) 12:54:15 145.980
ESTCUBE 1 31 Jul 12:53:51 12:58:08 44° 288° (WNW) 13:02:23 437.505/2401.250
SPROUT 31 Jul 13:03:28 13:07:44 59° 100° (E) 13:11:59 437.525
Cosmos 2491 31 Jul 13:04:09 13:12:57 85° 279° (W) 13:21:46 435.465 / 435.565
Cosmos 2504 31 Jul 13:15:30 13:22:44 32° 70° (ENE) 13:30:18 435.465 / 435.565
TISAT 1 31 Jul 13:19:03 13:23:11 53° 100° (E) 13:27:19 437.305
AIST 1 31 Jul 13:29:50 13:33:21 23° 287° (WNW) 13:36:47
BEESAT 31 Jul 13:31:43 13:33:21 12° 88° (E) 13:35:16 436.000
Gurwin Techsat 1B 31 Jul 13:32:15 13:36:32 26° 66° (ENE) 13:40:55 435.225
JAS-2 31 Jul 13:39:34 13:42:41 15° 55° (NE) 13:46:19 435.910
SWISSCUBE 31 Jul 13:50:35 13:54:08 21° 93° (E) 13:57:48 437.505
ITAMSAT 1 31 Jul 13:58:54 14:03:43 40° 70° (ENE) 14:08:36 435.822/435.867
CUBEBUG 1 31 Jul 14:02:46 14:03:56 11° 297° (WNW) 14:04:53 437.445
ITUPSAT 1 31 Jul 14:10:40 14:14:51 30° 95° (E) 14:19:04 437.325
AO-7 31 Jul 14:18:42 14:24:51 24° 55° (NE) 14:31:15 29.400- 29.500
Oscar 19 31 Jul 14:19:18 14:24:01 36° 263° (W) 14:28:43 437.125/150
CUSAT 1 31 Jul 14:26:35 14:28:58 15° 73° (ENE) 14:31:55 437.405
YUBILEINY 31 Jul 14:32:43 14:36:12 12° 284° (WNW) 14:38:58 435.215
SPROUT 31 Jul 14:41:19 14:43:22 13° 295° (WNW) 14:45:14 437.525
HORYU 2 31 Jul 14:42:10 14:44:05 13° 63° (ENE) 14:46:11 437.375
TISAT 1 31 Jul 14:56:19 14:58:33 14° 295° (WNW) 15:00:37 437.305
Cosmos 2491 31 Jul 15:05:46 15:11:26 17° 301° (WNW) 15:16:38 435.465 / 435.565
BEESAT 31 Jul 15:07:01 15:11:48 70° 285° (WNW) 15:16:32 436.000
Cosmos 2504 31 Jul 15:07:11 15:15:23 57° 268° (W) 15:23:43 435.465 / 435.565
Gurwin Techsat 1B 31 Jul 15:11:20 15:16:20 40° 262° (W) 15:21:20 435.225
JAS-2 31 Jul 15:20:37 15:26:36 82° 75° (ENE) 15:33:30 435.910
SWISSCUBE 31 Jul 15:27:42 15:32:11 40° 289° (WNW) 15:36:35 437.505
ITAMSAT 1 31 Jul 15:39:05 15:43:23 25° 266° (W) 15:47:35 435.822/435.867
DANDE 31 Jul 15:41:44 15:45:20 54° 80° (E) 15:50:09 436.750
STARS 31 Jul 15:47:25 15:51:21 31° 96° (E) 15:55:19 437.465
ITUPSAT 1 31 Jul 15:48:35 15:52:42 28° 292° (WNW) 15:56:42 437.325
CUSAT 1 31 Jul 16:07:28 16:11:29 48° 262° (W) 16:16:45 437.405
AO-7 31 Jul 16:08:27 16:16:51 82° 253° (WSW) 16:25:17 29.400- 29.500
KKS-1 31 Jul 16:11:55 16:16:24 82° 284° (WNW) 16:20:52 437.445
HORYU 2 31 Jul 16:15:49 16:20:14 65° 259° (WSW) 16:24:42 437.375
MOZHAYETS 4 31 Jul 16:57:08 17:01:25 36° 97° (E) 17:05:41
CUTE-I 31 Jul 17:01:57 17:04:59 16° 62° (ENE) 17:08:14 437.470
SO-50 31 Jul 17:07:44 17:10:43 16° 38° (NE) 17:13:50 436.795
JAS-2 31 Jul 17:09:19 17:12:52 15° 277° (W) 17:16:16 435.910
GONETS M04 31 Jul 17:13:07 17:21:36 54° 76° (ENE) 17:30:08
STARS 31 Jul 17:24:05 17:27:40 24° 292° (WNW) 17:31:08 437.465
DANDE 31 Jul 17:27:38 17:28:29 10° 265° (W) 17:29:05 436.750
Cosmos 2499 31 Jul 17:30:11 17:35:31 18° 60° (ENE) 17:41:24 435.465 / 435.565
Cubesat XI-IV 31 Jul 17:43:36 17:48:28 37° 69° (ENE) 17:53:23 437.490
AO-7 31 Jul 18:06:17 18:11:04 15° 273° (W) 18:15:16 29.400- 29.500
PCSat 31 Jul 18:12:15 18:17:22 41° 53° (NE) 18:22:30 145.827
VERMONT LUNAR 31 Jul 18:17:49 18:20:09 19° 152° (SSE) 18:22:32 437.305
MOZHAYETS 4 31 Jul 18:34:49 18:38:27 22° 292° (WNW) 18:41:56
HO-68 31 Jul 18:38:59 18:41:50 13° 52° (NE) 18:45:05 435.675
CUTE-I 31 Jul 18:39:11 18:44:32 72° 258° (WSW) 18:49:55 437.470
SO-50 31 Jul 18:47:02 18:52:02 90° 238° (WSW) 18:56:53 436.795
CUBESAT XI-V 31 Jul 18:49:07 18:53:34 46° 99° (E) 18:57:59 437.345
BRITE-PL 31 Jul 18:56:54 18:59:57 19° 69° (ENE) 19:03:03 437.365/2234.400
STRAND 1 31 Jul 19:03:17 19:06:55 20° 92° (E) 19:10:42 437.568
GONETS M04 31 Jul 19:10:36 19:18:06 32° 275° (W) 19:25:24
GOMX 1 31 Jul 19:11:42 19:14:09 16° 67° (ENE) 19:16:45 467.674
Cosmos 2499 31 Jul 19:21:24 19:30:12 83° 82° (E) 19:39:06 435.465 / 435.565
Cubesat XI-IV 31 Jul 19:24:01 19:28:39 28° 266° (W) 19:33:12 437.490
SEEDS 31 Jul 19:48:08 19:50:36 16° 66° (ENE) 19:53:16 437.485
CUTE 1.7 + AOD 2 31 Jul 19:49:20 19:52:24 20° 68° (ENE) 19:55:36 437.475
VERMONT LUNAR 31 Jul 19:53:25 19:56:35 64° 167° (SSE) 19:59:44 437.305
PCSat 31 Jul 19:56:02 20:00:38 28° 251° (WSW) 20:05:08 145.827
CANX-2 31 Jul 19:57:04 20:00:37 27° 70° (ENE) 20:04:16 2200.000
PHONESAT 2.4 31 Jul 19:58:03 20:00:29 18° 150° (SSE) 20:03:00 2401.200-2431.200
PRISM 31 Jul 20:11:18 20:15:27 83° 103° (ESE) 20:19:32 437.425
AAUSAT CUBESAT 2 31 Jul 20:15:26 20:18:31 21° 68° (ENE) 20:21:42 437.432
HO-68 31 Jul 20:21:22 20:28:25 67° 71° (ENE) 20:35:31 435.675
CUBESAT XI-V 31 Jul 20:27:32 20:30:40 18° 294° (WNW) 20:33:39 437.345
SO-50 31 Jul 20:30:56 20:31:54 10° 253° (WSW) 20:32:33 436.795
BRITE-PL 31 Jul 20:34:16 20:38:22 35° 263° (W) 20:42:15 437.365/2234.400
DOVE 4 31 Jul 20:39:01 20:43:12 87° 71° (ENE) 20:47:22 437.250
STRAND 1 31 Jul 20:41:32 20:46:26 47° 289° (WNW) 20:51:16 437.568
GOMX 1 31 Jul 20:47:59 20:52:03 42° 262° (W) 20:56:01 467.674
ZACube-1 31 Jul 20:52:11 20:54:25 15° 65° (ENE) 20:56:51 437.345
CINEMA 3 31 Jul 20:52:39 20:56:39 51° 74° (ENE) 21:00:46 145.822/145.860
COMPASS 1 31 Jul 21:07:38 21:11:52 87° 262° (W) 21:16:07 437.405
FUNcube-1 31 Jul 21:12:56 21:16:13 23° 69° (ENE) 21:19:39 145.935
UWE-3 31 Jul 21:13:10 21:16:49 31° 71° (ENE) 21:20:38 435.000/436.395/437.385
Cosmos 2499 31 Jul 21:16:18 21:22:30 21° 279° (W) 21:28:20 435.465 / 435.565
SEEDS 31 Jul 21:21:58 21:26:03 46° 262° (W) 21:30:11 437.485
CUTE 1.7 + AOD 2 31 Jul 21:24:10 21:28:05 35° 263° (W) 21:32:03 437.475
Oscar 11 31 Jul 21:25:44 21:29:58 56° 74° (ENE) 21:34:14 145.826/435.025
ISS 31 Jul 21:26:20 21:29:30 56° 140° (SE) 21:32:43 145.825
CUBEBUG 2 31 Jul 21:27:06 21:31:10 57° 74° (ENE) 21:35:23 437.445
VERMONT LUNAR 31 Jul 21:30:05 21:33:17 87° 185° (S) 21:36:28 437.305
UKube-1 31 Jul 21:30:35 21:31:34 11° 63° (ENE) 21:32:46 .
CANX-2 31 Jul 21:32:53 21:36:30 26° 266° (W) 21:40:05 2200.000
PHONESAT 2.4 31 Jul 21:34:37 21:38:05 59° 165° (SSE) 21:41:33 2401.200-2431.200
RS-15 31 Jul 21:34:38 21:45:10 60° 114° (ESE) 21:56:09 29.354- 29.394
AUBIESAT-1 31 Jul 21:38:41 21:41:08 14° 93° (E) 21:43:46 437.475
DELFI C3 31 Jul 21:39:35 21:43:31 52° 74° (ENE) 21:47:30 145.870
HUMSAT D 31 Jul 21:42:27 21:45:31 21° 68° (ENE) 21:48:42 437.325/437.525
AAUSAT CUBESAT 2 31 Jul 21:50:06 21:53:55 33° 264° (W) 21:57:44 437.432
DX 1 31 Jul 21:55:19 21:58:38 22° 67° (ENE) 22:02:01 434.975-435.025
VELOX 1 31 Jul 22:08:11 22:11:06 18° 66° (ENE) 22:14:08 145.980
HO-68 31 Jul 22:11:19 22:16:48 22° 269° (W) 22:22:01 435.675
ESTCUBE 1 31 Jul 22:18:01 22:20:47 17° 65° (ENE) 22:23:41 437.505/2401.250
ZACube-1 31 Jul 22:26:19 22:30:23 49° 261° (W) 22:34:33 437.345
CINEMA 3 31 Jul 22:32:32 22:34:18 12° 272° (W) 22:35:53 145.822/145.860
TIGRISAT 31 Jul 22:37:24 22:40:46 20° 92° (E) 22:44:19 435.000
ANTELSAT 31 Jul 22:38:51 22:42:25 22° 93° (E) 22:46:05 437.575/2403.000
M-CUBED/EXP-1 PRIME 31 Jul 22:41:36 22:46:26 76° 107° (ESE) 22:51:08 437.505
FUNcube-1 31 Jul 22:48:47 22:52:27 28° 265° (W) 22:56:08 145.935
UWE-3 31 Jul 22:50:13 22:53:28 21° 268° (W) 22:56:40 435.000/436.395/437.385
BEESAT 3 31 Jul 22:50:45 22:52:49 14° 111° (ESE) 22:55:05 437.485
UKube-1 31 Jul 23:02:50 23:07:09 74° 258° (WSW) 23:11:30 .
ISS 31 Jul 23:03:27 23:06:08 23° 338° (NNW) 23:08:50 145.825
AISAT 31 Jul 23:03:43 23:08:05 73° 76° (ENE) 23:12:30 437.250
Oscar 11 31 Jul 23:04:34 23:06:34 13° 271° (W) 23:08:22 145.826/435.025
VERMONT LUNAR 31 Jul 23:06:54 23:09:54 39° 200° (SSW) 23:12:52 437.305
CUBEBUG 2 31 Jul 23:06:57 23:08:23 11° 272° (W) 23:09:34 437.445
50 SAT 31 Jul 23:10:58 23:14:50 80° 257° (WSW) 23:18:47 437.505
AUBIESAT-1 31 Jul 23:11:34 23:16:17 62° 291° (WNW) 23:20:51 437.475
PHONESAT 2.4 31 Jul 23:12:30 23:16:01 88° 184° (S) 23:19:32 2401.200-2431.200
Cosmos 2491 31 Jul 23:15:04 23:23:24 48° 74° (ENE) 23:31:46 435.465 / 435.565
DELFI C3 31 Jul 23:17:19 23:18:58 12° 271° (W) 23:20:25 145.870
HUMSAT D 31 Jul 23:17:21 23:21:04 32° 264° (W) 23:24:49 437.325/437.525
CUBEBUG 1 31 Jul 23:19:25 23:23:41 58° 74° (ENE) 23:27:58 437.445
UNISAT 6 31 Jul 23:29:31 23:34:14 73° 102° (ESE) 23:38:56 437.425
POLYITAN 1 31 Jul 23:30:41 23:34:20 27° 95° (E) 23:38:03 437.675
DX 1 31 Jul 23:30:46 23:34:43 33° 263° (W) 23:38:37 434.975-435.025
AIST 1 31 Jul 23:36:06 23:40:23 83° 82° (E) 23:44:38
YUBILEINY 31 Jul 23:37:37 23:44:28 28° 84° (E) 23:51:39 435.215
VELOX 1 31 Jul 23:43:09 23:47:22 43° 261° (W) 23:51:34 145.980
BEESAT 2 31 Jul 23:46:00 23:49:52 43° 117° (ESE) 23:53:49 435.950
POPSAT HIP 1 31 Jul 23:47:39 23:51:42 41° 98° (E) 23:55:46 437.405
RS-15 31 Jul 23:47:43 23:58:07 44° 319° (NW) 00:08:48 29.354- 29.394
ESTCUBE 1 31 Jul 23:52:52 23:57:17 50° 261° (W) 00:01:42 437.505/2401.250
BUGSAT 1 31 Jul 23:54:21 23:57:53 29° 96° (E) 00:01:31 437.445
QB50P2 31 Jul 23:55:08 23:59:18 53° 100° (E) 00:03:30 145.880/145.840
SPROUT 31 Jul 23:57:17 00:01:18 43° 73° (ENE) 00:05:23 437.525
TISAT 1 01 Aug 00:10:53 00:14:44 37° 72° (ENE) 00:18:37 437.305
TIGRISAT 01 Aug 00:13:17 00:17:42 41° 288° (WNW) 00:22:06 435.000
ANTELSAT 01 Aug 00:14:57 00:19:19 38° 289° (WNW) 00:23:40 437.575/2403.000
M-CUBED/EXP-1 PRIME 01 Aug 00:18:01 00:20:37 14° 302° (WNW) 00:23:01 437.505
DUCHIFAT 1 01 Aug 00:20:07 00:24:23 85° 285° (WNW) 00:28:38 145.980
QB50P1 01 Aug 00:23:05 00:27:21 75° 283° (WNW) 00:31:36 145.935-145.965
NANOSAT C BR1 01 Aug 00:24:29 00:28:45 74° 283° (WNW) 00:32:58 145.865
BEESAT 3 01 Aug 00:26:24 00:30:23 52° 306° (NW) 00:34:24 437.485
